Time,TemperatureF,DewpointF,PressureIn,WindDirection,WindDirectionDegrees,WindSpeedMPH,WindSpeedGustMPH,Humidity,HourlyPrecipIn,Conditions,Clouds,dailyrainin,SoftwareType,DateUTC
2013-06-21 00:10:00,74.4,42.0,29.73,ESE,113,1.0,2.0,31,0.00,,,0.00,weatherlink.com 1.10,2013-06-21 08:10:00,
2013-06-21 00:25:00,72.8,44.0,29.74,WSW,240,0.0,2.0,35,0.00,,,0.00,weatherlink.com 1.10,2013-06-21 08:25:00,
2013-06-21 00:40:00,72.7,43.0,29.74,West,265,0.0,1.0,35,0.00,,,0.00,weatherlink.com 1.10,2013-06-21 08:40:00,
2013-06-21 00:55:00,72.6,41.0,29.74,West,264,0.0,1.0,32,0.00,,,0.00,weatherlink.com 1.10,2013-06-21 08:55:00,
2013-06-21 01:10:00,72.1,43.0,29.74,WSW,242,0.0,1.0,35,0.00,,,0.00,weatherlink.com 1.10,2013-06-21 09:10:00,
2013-06-21 01:25:00,70.7,44.0,29.74,NE,47,0.0,1.0,38,0.00,,,0.00,weatherlink.com 1.10,2013-06-21 09:25:00,
2013-06-21 01:40:00,69.3,44.0,29.74,ENE,64,0.0,1.0,40,0.00,,,0.00,weatherlink.com 1.10,2013-06-21 09:40:00,
2013-06-21 01:55:00,69.9,45.0,29.75,SW,235,0.0,2.0,41,0.00,,,0.00,weatherlink.com 1.10,2013-06-21 09:55:00,
2013-06-21 02:10:00,69.0,45.0,29.75,North,6,0.0,1.0,43,0.00,,,0.00,weatherlink.com 1.10,2013-06-21 10:10:00,
2013-06-21 02:25:00,69.3,44.0,29.75,South,190,1.0,3.0,40,0.00,,,0.00,weatherlink.com 1.10,2013-06-21 10:25:00,
2013-06-21 02:40:00,70.3,43.0,29.75,ENE,66,0.0,3.0,38,0.00,,,0.00,weatherlink.com 1.10,2013-06-21 10:40:00,
2013-06-21 02:55:00,69.9,44.0,29.75,WNW,289,0.0,0.0,40,0.00,,,0.00,weatherlink.com 1.10,2013-06-21 10:55:00,
2013-06-21 03:10:00,68.1,45.0,29.76,ENE,67,0.0,0.0,43,0.00,,,0.00,weatherlink.com 1.10,2013-06-21 11:10:00,
2013-06-21 03:25:00,67.5,46.0,29.75,NE,54,0.0,2.0,46,0.00,,,0.00,weatherlink.com 1.10,2013-06-21 11:25:00,
2013-06-21 03:40:00,66.9,45.0,29.75,NW,307,0.0,2.0,46,0.00,,,0.00,weatherlink.com 1.10,2013-06-21 11:40:00,
2013-06-21 03:55:00,67.6,45.0,29.75,SW,236,0.0,2.0,45,0.00,,,0.00,weatherlink.com 1.10,2013-06-21 11:55:00,
2013-06-21 04:10:00,67.1,46.0,29.75,WNW,300,1.0,2.0,47,0.00,,,0.00,weatherlink.com 1.10,2013-06-21 12:10:00,
2013-06-21 04:25:00,66.4,46.0,29.75,WSW,257,0.0,0.0,49,0.00,,,0.00,weatherlink.com 1.10,2013-06-21 12:25:00,
2013-06-21 04:40:00,65.5,47.0,29.76,ESE,121,0.0,0.0,51,0.00,,,0.00,weatherlink.com 1.10,2013-06-21 12:40:00,
2013-06-21 04:55:00,65.4,47.0,29.76,ESE,120,0.0,2.0,51,0.00,,,0.00,weatherlink.com 1.10,2013-06-21 12:55:00,
2013-06-21 05:11:00,65.0,47.0,29.76,SE,124,1.0,1.0,53,0.00,,,0.00,weatherlink.com 1.10,2013-06-21 13:11:00,
2013-06-21 05:26:00,64.3,48.0,29.76,ESE,108,1.0,2.0,55,0.00,,,0.00,weatherlink.com 1.10,2013-06-21 13:26:00,
2013-06-21 05:41:00,63.7,48.0,29.76,East,86,2.0,3.0,56,0.00,,,0.00,weatherlink.com 1.10,2013-06-21 13:41:00,
2013-06-21 05:56:00,63.3,48.0,29.76,ESE,120,1.0,3.0,57,0.00,,,0.00,weatherlink.com 1.10,2013-06-21 13:56:00,
2013-06-21 06:11:00,63.0,48.0,29.77,East,98,0.0,3.0,58,0.00,,,0.00,weatherlink.com 1.10,2013-06-21 14:11:00,
2013-06-21 06:26:00,62.8,48.0,29.77,ESE,113,1.0,3.0,59,0.00,,,0.00,weatherlink.com 1.10,2013-06-21 14:26:00,
2013-06-21 06:41:00,62.6,48.0,29.78,ESE,120,1.0,4.0,60,0.00,,,0.00,weatherlink.com 1.10,2013-06-21 14:41:00,
2013-06-21 06:56:00,61.7,48.0,29.79,SE,126,2.0,4.0,62,0.00,,,0.00,weatherlink.com 1.10,2013-06-21 14:56:00,
2013-06-21 07:26:00,61.0,49.0,29.78,NW,325,2.0,3.0,65,0.00,,,0.00,weatherlink.com 1.10,2013-06-21 15:26:00,
2013-06-21 07:41:00,61.0,49.0,29.78,West,276,2.0,2.0,65,0.00,,,0.00,weatherlink.com 1.10,2013-06-21 15:41:00,
2013-06-21 07:56:00,61.3,49.0,29.77,West,266,3.0,7.0,64,0.00,,,0.00,weatherlink.com 1.10,2013-06-21 15:56:00,
2013-06-21 08:11:00,61.4,49.0,29.77,West,264,5.0,9.0,64,0.00,,,0.00,weatherlink.com 1.10,2013-06-21 16:11:00,
2013-06-21 08:26:00,61.0,49.0,29.77,ENE,69,2.0,6.0,65,0.00,,,0.00,weatherlink.com 1.10,2013-06-21 16:26:00,
2013-06-21 08:56:00,61.6,49.0,29.78,WSW,256,0.0,7.0,64,0.00,,,0.00,weatherlink.com 1.10,2013-06-21 16:56:00,
2013-06-21 10:11:00,63.5,51.0,29.80,ENE,60,1.0,3.0,63,0.00,,,0.00,weatherlink.com 1.10,2013-06-21 18:11:00,
2013-06-21 10:26:00,64.1,50.0,29.80,NE,53,0.0,4.0,61,0.00,,,0.00,weatherlink.com 1.10,2013-06-21 18:26:00,
2013-06-21 10:41:00,64.7,51.0,29.80,SW,222,0.0,3.0,62,0.00,,,0.00,weatherlink.com 1.10,2013-06-21 18:41:00,
2013-06-21 10:56:00,64.5,51.0,29.80,SE,140,1.0,3.0,63,0.00,,,0.00,weatherlink.com 1.10,2013-06-21 18:56:00,
2013-06-21 11:26:00,63.5,52.0,29.81,ESE,103,0.0,2.0,67,0.00,,,0.00,weatherlink.com 1.10,2013-06-21 19:26:00,
2013-06-21 11:56:00,62.8,51.0,29.82,ESE,111,0.0,3.0,66,0.00,,,0.00,weatherlink.com 1.10,2013-06-21 19:56:00,
2013-06-21 12:11:00,62.7,51.0,29.82,SSE,155,0.0,2.0,66,0.00,,,0.00,weatherlink.com 1.10,2013-06-21 20:11:00,
2013-06-21 12:26:00,60.9,53.0,29.82,SE,127,0.0,2.0,75,0.00,,,0.00,weatherlink.com 1.10,2013-06-21 20:26:00,
2013-06-21 12:41:00,59.3,53.0,29.83,SE,125,1.0,4.0,80,0.00,,,0.00,weatherlink.com 1.10,2013-06-21 20:41:00,
2013-06-21 12:56:00,58.7,53.0,29.83,ESE,113,3.0,4.0,82,0.00,,,0.00,weatherlink.com 1.10,2013-06-21 20:56:00,
2013-06-21 13:11:00,59.7,54.0,29.83,SE,132,1.0,3.0,82,0.00,,,0.00,weatherlink.com 1.10,2013-06-21 21:11:00,
2013-06-21 13:26:00,61.4,53.0,29.83,SE,136,0.0,4.0,75,0.00,,,0.00,weatherlink.com 1.10,2013-06-21 21:26:00,
2013-06-21 13:41:00,62.0,54.0,29.83,ESE,112,0.0,2.0,74,0.00,,,0.00,weatherlink.com 1.10,2013-06-21 21:41:00,
2013-06-21 13:56:00,61.4,53.0,29.83,ESE,122,1.0,4.0,75,0.00,,,0.00,weatherlink.com 1.10,2013-06-21 21:56:00,
2013-06-21 14:11:00,60.5,54.0,29.83,East,94,2.0,4.0,78,0.00,,,0.00,weatherlink.com 1.10,2013-06-21 22:11:00,
2013-06-21 14:27:00,59.9,54.0,29.84,ESE,120,1.0,4.0,81,0.00,,,0.00,weatherlink.com 1.10,2013-06-21 22:27:00,
2013-06-21 14:42:00,59.3,54.0,29.85,ESE,122,0.0,6.0,83,0.01,,,0.01,weatherlink.com 1.10,2013-06-21 22:42:00,
2013-06-21 14:57:00,58.3,54.0,29.85,ESE,122,1.0,4.0,86,0.01,,,0.01,weatherlink.com 1.10,2013-06-21 22:57:00,
2013-06-21 15:12:00,58.3,55.0,29.85,SE,127,0.0,2.0,87,0.01,,,0.01,weatherlink.com 1.10,2013-06-21 23:12:00,
2013-06-21 15:27:00,58.4,55.0,29.84,ESE,114,0.0,1.0,88,0.02,,,0.02,weatherlink.com 1.10,2013-06-21 23:27:00,
2013-06-21 15:43:00,58.8,56.0,29.83,ENE,64,0.0,0.0,90,0.02,,,0.03,weatherlink.com 1.10,2013-06-21 23:43:00,
2013-06-21 15:57:00,57.9,55.0,29.82,North,352,0.0,3.0,89,0.02,,,0.03,weatherlink.com 1.10,2013-06-21 23:57:00,
2013-06-21 16:12:00,58.0,55.0,29.81,West,271,0.0,1.0,88,0.02,,,0.03,weatherlink.com 1.10,2013-06-22 00:12:00,
2013-06-21 16:27:00,59.3,54.0,29.81,West,262,2.0,3.0,82,0.01,,,0.03,weatherlink.com 1.10,2013-06-22 00:27:00,
2013-06-21 16:42:00,61.4,52.0,29.81,North,350,1.0,2.0,71,0.00,,,0.03,weatherlink.com 1.10,2013-06-22 00:42:00,
2013-06-21 16:57:00,64.1,55.0,29.82,WSW,257,3.0,3.0,73,0.00,,,0.03,weatherlink.com 1.10,2013-06-22 00:57:00,
2013-06-21 17:12:00,63.2,55.0,29.82,ESE,120,0.0,2.0,75,0.00,,,0.03,weatherlink.com 1.10,2013-06-22 01:12:00,
2013-06-21 17:27:00,65.1,54.0,29.82,NW,315,0.0,3.0,67,0.00,,,0.03,weatherlink.com 1.10,2013-06-22 01:27:00,
2013-06-21 17:42:00,66.9,55.0,29.81,NW,322,1.0,2.0,65,0.00,,,0.03,weatherlink.com 1.10,2013-06-22 01:42:00,
2013-06-21 17:57:00,68.0,54.0,29.81,East,101,2.0,3.0,61,0.00,,,0.03,weatherlink.com 1.10,2013-06-22 01:57:00,
2013-06-21 18:12:00,67.4,52.0,29.81,ESE,120,2.0,2.0,59,0.00,,,0.03,weatherlink.com 1.10,2013-06-22 02:12:00,
2013-06-21 18:27:00,69.1,54.0,29.81,ESE,117,3.0,3.0,58,0.00,,,0.03,weatherlink.com 1.10,2013-06-22 02:27:00,
2013-06-21 18:42:00,70.0,51.0,29.81,SSE,163,1.0,3.0,52,0.00,,,0.03,weatherlink.com 1.10,2013-06-22 02:42:00,
2013-06-21 18:57:00,69.9,54.0,29.80,East,85,4.0,4.0,58,0.00,,,0.03,weatherlink.com 1.10,2013-06-22 02:57:00,
2013-06-21 19:12:00,69.1,54.0,29.80,East,101,2.0,3.0,60,0.00,,,0.03,weatherlink.com 1.10,2013-06-22 03:12:00,
2013-06-21 19:27:00,68.9,53.0,29.80,SE,136,1.0,4.0,57,0.00,,,0.03,weatherlink.com 1.10,2013-06-22 03:27:00,
2013-06-21 19:42:00,68.5,52.0,29.80,ESE,120,1.0,4.0,57,0.00,,,0.03,weatherlink.com 1.10,2013-06-22 03:42:00,
2013-06-21 19:57:00,69.5,53.0,29.80,East,101,3.0,3.0,57,0.00,,,0.03,weatherlink.com 1.10,2013-06-22 03:57:00,
2013-06-21 20:12:00,69.2,52.0,29.80,SE,127,1.0,2.0,54,0.00,,,0.03,weatherlink.com 1.10,2013-06-22 04:12:00,
2013-06-21 20:27:00,69.8,52.0,29.80,SE,126,0.0,0.0,54,0.00,,,0.03,weatherlink.com 1.10,2013-06-22 04:27:00,
2013-06-21 20:42:00,68.3,52.0,29.80,East,100,1.0,2.0,56,0.00,,,0.03,weatherlink.com 1.10,2013-06-22 04:42:00,
2013-06-21 20:57:00,66.5,51.0,29.80,ESE,117,0.0,0.0,58,0.00,,,0.03,weatherlink.com 1.10,2013-06-22 04:57:00,
2013-06-21 21:12:00,65.1,51.0,29.80,ESE,116,0.0,0.0,61,0.00,,,0.03,weatherlink.com 1.10,2013-06-22 05:12:00,
2013-06-21 21:27:00,64.2,51.0,29.80,West,262,0.0,0.0,62,0.00,,,0.03,weatherlink.com 1.10,2013-06-22 05:27:00,
2013-06-21 21:42:00,63.0,51.0,29.80,WNW,283,0.0,0.0,64,0.00,,,0.03,weatherlink.com 1.10,2013-06-22 05:42:00,
2013-06-21 21:57:00,62.6,50.0,29.80,ESE,120,0.0,0.0,64,0.00,,,0.03,weatherlink.com 1.10,2013-06-22 05:57:00,
2013-06-21 22:12:00,62.6,50.0,29.80,ESE,120,0.0,0.0,64,0.00,,,0.03,weatherlink.com 1.10,2013-06-22 06:12:00,
2013-06-21 22:27:00,62.4,50.0,29.80,East,96,1.0,1.0,64,0.00,,,0.03,weatherlink.com 1.10,2013-06-22 06:27:00,
2013-06-21 22:42:00,62.5,50.0,29.80,East,101,0.0,0.0,65,0.00,,,0.03,weatherlink.com 1.10,2013-06-22 06:42:00,
2013-06-21 22:57:00,61.3,50.0,29.80,ESE,102,1.0,1.0,67,0.00,,,0.03,weatherlink.com 1.10,2013-06-22 06:57:00,
2013-06-21 23:12:00,61.2,50.0,29.80,East,98,0.0,2.0,68,0.00,,,0.03,weatherlink.com 1.10,2013-06-22 07:12:00,
2013-06-21 23:27:00,61.3,50.0,29.81,SE,139,0.0,0.0,67,0.00,,,0.03,weatherlink.com 1.10,2013-06-22 07:27:00,
2013-06-21 23:42:00,61.5,49.0,29.81,ESE,111,1.0,2.0,64,0.00,,,0.03,weatherlink.com 1.10,2013-06-22 07:42:00,
2013-06-21 23:57:00,61.6,48.0,29.81,ESE,113,0.0,3.0,62,0.00,,,0.03,weatherlink.com 1.10,2013-06-22 07:57:00,